Time,TemperatureF,DewpointF,PressureIn,WindDirection,WindDirectionDegrees,WindSpeedMPH,WindSpeedGustMPH,Humidity,HourlyPrecipIn,Conditions,Clouds,dailyrainin,SoftwareType,DateUTC
2013-06-22 11:02:00,78.0,59.0,30.22,West,270,6.0,6.0,53,0.00,,,0.00,,2013-06-22 15:02:00,
2013-06-22 11:53:00,81.0,58.0,30.22,South,184,0.0,7.0,45,0.00,,,0.00,,2013-06-22 15:53:00,
2013-06-22 12:12:00,82.0,55.0,30.22,WNW,289,1.0,6.0,40,0.00,,,0.00,,2013-06-22 16:12:00,
2013-06-22 12:34:00,83.0,57.0,30.22,WSW,258,0.0,3.0,41,0.00,,,0.00,,2013-06-22 16:34:00,
2013-06-22 12:43:00,83.0,53.0,30.22,West,259,3.0,6.0,36,0.00,,,0.00,,2013-06-22 16:43:00,
2013-06-22 12:52:00,83.0,53.0,30.22,West,259,3.0,6.0,36,0.00,,,0.00,,2013-06-22 16:52:00,
2013-06-22 13:02:00,84.0,51.0,30.22,WSW,257,3.0,10.0,32,0.00,,,0.00,,2013-06-22 17:02:00,
2013-06-22 13:11:00,84.0,51.0,30.22,WSW,257,3.0,10.0,32,0.00,,,0.00,,2013-06-22 17:11:00,
2013-06-22 13:34:00,84.0,55.0,30.20,SW,221,6.0,10.0,37,0.00,,,0.00,,2013-06-22 17:34:00,
2013-06-22 13:43:00,84.0,53.0,30.19,WSW,252,7.0,11.0,35,0.00,,,0.00,,2013-06-22 17:43:00,
2013-06-22 13:52:00,84.0,54.0,30.19,SW,219,5.0,11.0,36,0.00,,,0.00,,2013-06-22 17:52:00,
2013-06-22 14:02:00,84.0,54.0,30.19,SW,219,5.0,11.0,36,0.00,,,0.00,,2013-06-22 18:02:00,
2013-06-22 14:12:00,84.0,54.0,30.19,SW,219,5.0,11.0,36,0.00,,,0.00,,2013-06-22 18:12:00,
2013-06-22 14:23:00,84.0,54.0,30.19,SW,219,5.0,11.0,36,0.00,,,0.00,,2013-06-22 18:23:00,
2013-06-22 14:34:00,86.0,55.0,30.18,WSW,248,0.0,3.0,35,0.00,,,0.00,,2013-06-22 18:34:00,
2013-06-22 14:43:00,86.0,57.0,30.18,SSE,159,1.0,9.0,37,0.00,,,0.00,,2013-06-22 18:43:00,
2013-06-22 14:52:00,86.0,55.0,30.18,SW,224,4.0,12.0,35,0.00,,,0.00,,2013-06-22 18:52:00,
2013-06-22 15:01:00,86.0,56.0,30.18,SSW,202,3.0,9.0,36,0.00,,,0.00,,2013-06-22 19:01:00,
2013-06-22 15:11:00,86.0,56.0,30.17,SW,233,1.0,5.0,36,0.00,,,0.00,,2013-06-22 19:11:00,
2013-06-22 15:33:00,86.0,60.0,30.17,South,174,7.0,11.0,42,0.00,,,0.00,,2013-06-22 19:33:00,
2013-06-22 15:43:00,86.0,60.0,30.17,South,174,7.0,11.0,42,0.00,,,0.00,,2013-06-22 19:43:00,
2013-06-22 15:53:00,86.0,60.0,30.17,South,174,7.0,11.0,42,0.00,,,0.00,,2013-06-22 19:53:00,
2013-06-22 16:02:00,80.0,59.0,30.16,ESE,123,11.0,14.0,49,0.00,,,0.00,,2013-06-22 20:02:00,
2013-06-22 16:11:00,80.0,59.0,30.16,ESE,123,11.0,14.0,49,0.00,,,0.00,,2013-06-22 20:11:00,
2013-06-22 16:34:00,78.0,56.0,30.15,ESE,102,11.0,16.0,47,0.00,,,0.00,,2013-06-22 20:34:00,
2013-06-22 16:43:00,78.0,56.0,30.15,ESE,102,11.0,16.0,47,0.00,,,0.00,,2013-06-22 20:43:00,
2013-06-22 16:53:00,78.0,57.0,30.14,ESE,118,7.0,14.0,49,0.00,,,0.00,,2013-06-22 20:53:00,
2013-06-22 17:01:00,78.0,57.0,30.14,ESE,118,7.0,14.0,49,0.00,,,0.00,,2013-06-22 21:01:00,
2013-06-22 17:11:00,78.0,57.0,30.14,ESE,118,7.0,14.0,49,0.00,,,0.00,,2013-06-22 21:11:00,
2013-06-22 17:22:00,77.0,58.0,30.14,SSE,147,10.0,11.0,52,0.00,,,0.00,,2013-06-22 21:22:00,
2013-06-22 17:34:00,76.0,58.0,30.13,ESE,122,5.0,13.0,53,0.00,,,0.00,,2013-06-22 21:34:00,
2013-06-22 17:43:00,76.0,58.0,30.13,ESE,122,5.0,13.0,53,0.00,,,0.00,,2013-06-22 21:43:00,
2013-06-22 17:53:00,76.0,58.0,30.13,ESE,122,5.0,13.0,53,0.00,,,0.00,,2013-06-22 21:53:00,
2013-06-22 18:02:00,76.0,59.0,30.13,SSE,164,3.0,12.0,55,0.00,,,0.00,,2013-06-22 22:02:00,
2013-06-22 18:12:00,76.0,59.0,30.13,SSE,157,4.0,10.0,55,0.00,,,0.00,,2013-06-22 22:12:00,
2013-06-22 18:23:00,76.0,60.0,30.13,SE,144,5.0,10.0,57,0.00,,,0.00,,2013-06-22 22:23:00,
2013-06-22 18:33:00,76.0,60.0,30.13,ESE,123,3.0,9.0,57,0.00,,,0.00,,2013-06-22 22:33:00,
2013-06-22 18:43:00,76.0,60.0,30.13,ESE,123,3.0,9.0,57,0.00,,,0.00,,2013-06-22 22:43:00,
2013-06-22 18:52:00,76.0,60.0,30.13,ESE,123,3.0,9.0,57,0.00,,,0.00,,2013-06-22 22:52:00,
2013-06-22 19:02:00,76.0,60.0,30.13,ESE,123,3.0,9.0,57,0.00,,,0.00,,2013-06-22 23:02:00,
2013-06-22 19:11:00,76.0,60.0,30.13,ESE,123,3.0,9.0,57,0.00,,,0.00,,2013-06-22 23:11:00,
2013-06-22 19:53:00,75.0,58.0,30.11,SSE,155,3.0,8.0,56,0.00,,,0.00,,2013-06-22 23:53:00,
2013-06-22 20:01:00,74.0,57.0,30.11,ESE,110,2.0,10.0,56,0.00,,,0.00,,2013-06-23 00:01:00,
2013-06-22 20:11:00,74.0,57.0,30.11,ESE,110,2.0,10.0,56,0.00,,,0.00,,2013-06-23 00:11:00,
2013-06-22 20:34:00,74.0,58.0,30.11,SE,127,3.0,6.0,57,0.00,,,0.00,,2013-06-23 00:34:00,
2013-06-22 20:42:00,74.0,58.0,30.11,SE,127,3.0,6.0,57,0.00,,,0.00,,2013-06-23 00:42:00,
2013-06-22 20:53:00,74.0,58.0,30.11,SE,127,3.0,6.0,57,0.00,,,0.00,,2013-06-23 00:53:00,
2013-06-22 21:01:00,73.0,58.0,30.12,SE,139,3.0,6.0,59,0.00,,,0.00,,2013-06-23 01:01:00,
2013-06-22 21:12:00,73.0,57.0,30.12,SSE,150,0.0,6.0,58,0.00,,,0.00,,2013-06-23 01:12:00,
2013-06-22 21:22:00,73.0,57.0,30.12,SSE,150,0.0,6.0,58,0.00,,,0.00,,2013-06-23 01:22:00,
2013-06-22 21:32:00,73.0,57.0,30.12,SSE,150,0.0,6.0,58,0.00,,,0.00,,2013-06-23 01:32:00,
2013-06-22 21:42:00,73.0,57.0,30.12,SSE,150,0.0,6.0,58,0.00,,,0.00,,2013-06-23 01:42:00,
2013-06-22 21:52:00,73.0,57.0,30.12,SSE,150,0.0,6.0,58,0.00,,,0.00,,2013-06-23 01:52:00,
2013-06-22 23:11:00,74.0,57.0,30.13,SSE,167,3.0,9.0,56,0.00,,,0.00,,2013-06-23 03:11:00,
2013-06-22 23:21:00,74.0,57.0,30.13,SSE,167,3.0,9.0,56,0.00,,,0.00,,2013-06-23 03:21:00,
2013-06-22 23:31:00,74.0,57.0,30.13,SSE,167,3.0,9.0,56,0.00,,,0.00,,2013-06-23 03:31:00,
2013-06-22 23:41:00,74.0,57.0,30.13,SSE,167,3.0,9.0,56,0.00,,,0.00,,2013-06-23 03:41:00,
2013-06-22 23:51:00,74.0,57.0,30.13,SSE,167,3.0,9.0,56,0.00,,,0.00,,2013-06-23 03:51:00,